This is the latest recevied weather packets stored in our database for station/object DL6JOE-10. If no packets are shown the sender has not sent any weather packets the latest 10 day(s).
| Time | Temp. | Humidity | Pressure | Rain* | Wind** | Luminosity | Snow |
|---|---|---|---|---|---|---|---|
| 1777049406 | 26.11° C | 17% | 964.6 hPa | - | - | - | - |
| 1777048506 | 26.67° C | 18% | 964.6 hPa | - | - | - | - |
| 1777047606 | 26.67° C | 19% | 964.5 hPa | - | - | - | - |
| 1777046706 | 26.67° C | 18% | 964.4 hPa | - | - | - | - |
| 1777045806 | 27.22° C | 18% | 964.5 hPa | - | - | - | - |
| 1777044906 | 27.22° C | 18% | 964.6 hPa | - | - | - | - |
| 1777044006 | 27.22° C | 18% | 964.7 hPa | - | - | - | - |
| 1777043105 | 27.22° C | 19% | 964.7 hPa | - | - | - | - |
| 1777042205 | 27.22° C | 18% | 964.8 hPa | - | - | - | - |
| 1777041305 | 27.22° C | 17% | 964.8 hPa | - | - | - | - |
| 1777040405 | 27.22° C | 18% | 964.8 hPa | - | - | - | - |
| 1777039505 | 27.22° C | 18% | 964.9 hPa | - | - | - | - |
| 1777038605 | 26.67° C | 19% | 965 hPa | - | - | - | - |
| 1777037705 | 26.67° C | 19% | 965.1 hPa | - | - | - | - |
| 1777036805 | 26.11° C | 19% | 965.2 hPa | - | - | - | - |
| 1777035905 | 26.11° C | 20% | 965.2 hPa | - | - | - | - |
| 1777035005 | 25.56° C | 20% | 965.2 hPa | - | - | - | - |
| 1777034105 | 25.56° C | 20% | 965.4 hPa | - | - | - | - |
| 1777033204 | 25.56° C | 21% | 965.4 hPa | - | - | - | - |
| 1777032304 | 25° C | 22% | 965.6 hPa | - | - | - | - |
| 1777031404 | 25° C | 23% | 965.7 hPa | - | - | - | - |
| 1777030504 | 24.44° C | 23% | 965.8 hPa | - | - | - | - |
| 1777029604 | 24.44° C | 25% | 965.9 hPa | - | - | - | - |
| 1777028704 | 23.89° C | 26% | 966 hPa | - | - | - | - |
| 1777027804 | 23.33° C | 27% | 966.3 hPa | - | - | - | - |
* Rain since midnight (hover to see other rain measurements)
** Current wind speed in m/s (hover to see current wind gust speed)